KJ7AZ-3 Weather Reports


time (UTC)temp
F
wind
direction
speed
knots
gust
knots
rain 1hr
in
rain 24hr
in
rain mn
in
humidity
%
barometer
mb
20260505205234 69 278 9.6 13.9 0.00 0.00 0.00
20260505203735 68 249 7.8 8.7 0.00 0.00 0.00
20260505202236 66 243 6.1 8.7 0.00 0.00 0.00
20260505192240 64 255 7.8 12.2 0.00 0.00 0.00
20260505185242 63 321 6.1 3.5 0.00 0.00 0.00
20260505183742 62 280 7.0 6.1 0.00 0.00 0.00
20260505180744 60 290 4.3 0.9 0.00 0.00 0.00
20260505175245 60 305 3.5 0.9 0.00 0.00 0.00
20260505173746 57 271 5.2 5.2 0.00 0.00 0.00
20260505170748 54 222 3.5 1.7 0.00 0.00 0.00
20260505165249 53 270 6.1 3.5 0.00 0.00 0.00
20260505163750 55 240 6.1 4.3 0.00 0.00 0.00
20260505162252 58 325 6.1 4.3 0.00 0.00 0.00
20260505160752 60 257 6.1 4.3 0.00 0.00 0.00
20260505152255 59 253 7.8 4.3 0.00 0.00 0.00
20260505150756 59 271 8.7 7.8 0.00 0.00 0.00
20260505122308 49 274 0.9 0.9 0.00 0.00 0.00
20260505120809 50 277 2.6 2.6 0.00 0.00 0.00
20260505115310 52 283 1.7 2.6 0.00 0.00 0.00
20260505112313 51 297 1.7 2.6 0.00 0.00 0.00
20260505110813 51 231 1.7 1.7 0.00 0.00 0.00
20260505100817 53 260 0.0 0.0 0.00 0.00 0.00
20260505092323 56 332 3.5 2.6 0.00 0.00 0.00
20260505085323 57 256 1.7 0.9 0.00 0.00 0.00
20260505083824 57 262 7.0 7.0 0.00 0.00 0.00
20260505082325 57 259 5.2 9.6 0.00 0.00 0.00
20260505080825 58 274 5.2 3.5 0.00 0.00 0.00
20260505075326 57 267 4.3 6.1 0.00 0.00 0.00
20260505073827 59 271 6.1 4.3 0.00 0.00 0.00
20260505072328 59 280 5.2 3.5 0.00 0.00 0.00
20260505070829 59 269 4.3 7.0 0.00 0.00 0.00
20260505065329 59 267 1.7 4.3 0.00 0.00 0.00
20260505063830 60 273 3.5 5.2 0.00 0.00 0.00
20260505062331 60 278 5.2 5.2 0.00 0.00 0.00
20260505060832 60 239 2.6 0.9 0.00 0.00 0.00
20260505055332 61 255 4.3 3.5 0.00 0.00 0.00
20260505053833 61 273 6.1 3.5 0.00 0.00 0.00
20260505052334 61 245 7.0 6.1 0.00 0.00 0.00
20260505050837 62 291 7.0 7.0 0.00 0.00 0.00
20260505040838 64 283 4.3 4.3 0.00 0.00 0.00
20260505035339 65 342 5.2 4.3 0.00 0.00 0.00
20260505033839 66 316 3.5 5.2 0.00 0.00 0.00
20260505032340 67 270 5.2 6.1 0.00 0.00 0.00
20260505030841 66 256 4.3 3.5 0.00 0.00 0.00
20260505023842 65 298 0.9 0.0 0.00 0.00 0.00
20260505022343 66 245 3.5 2.6 0.00 0.00 0.00
20260505020843 66 314 5.2 4.3 0.00 0.00 0.00
20260505015344 66 300 3.5 3.5 0.00 0.00 0.00
20260505013845 66 260 4.3 3.5 0.00 0.00 0.00
20260505012345 66 309 5.2 7.0 0.00 0.00 0.00
20260505010846 68 295 5.2 6.1 0.00 0.00 0.00
20260505005346 68 298 6.1 7.8 0.00 0.00 0.00
20260505003847 70 330 7.8 5.2 0.00 0.00 0.00
20260505002347 70 293 7.8 8.7 0.00 0.00 0.00
20260505000848 72 291 7.0 4.3 0.00 0.00 0.00
20260504235348 71 287 7.8 11.3 0.00 0.00 0.00
20260504233849 72 325 6.1 3.5 0.00 0.00 0.00
20260504232349 74 318 7.0 7.0 0.00 0.00 0.00
20260504230850 73 274 5.2 11.3 0.00 0.00 0.00
20260504225350 74 304 8.7 6.1 0.00 0.00 0.00
20260504223851 76 305 6.1 1.7 0.00 0.00 0.00
20260504222351 73 314 8.7 8.7 0.00 0.00 0.00
20260504220851 74 284 7.8 7.0 0.00 0.00 0.00